Stevens Point, WI

6:48 AM CST on December 11, 2019 (GMT -0600)
Stevens Point Municipal

Weather History for KSTE - August, 2019

Change the Weather History Date:

Tuesday, August 27, 2019

  Actual Average Record
Temperature  
Mean Temperature 64 °F -  
Max Temperature 73 °F 78 °F 93 °F (1948)
Min Temperature 56 °F 57 °F 35 °F (1998)
Degree Days  
Heating Degree Days 1    
Growing Degree Days 14 (Base 50)    
Moisture  
Dew Point 53 °F    
Average Humidity 73    
Maximum Humidity 100    
Minimum Humidity 40    
Precipitation  
Precipitation 0.00 in - - ()
Sea Level Pressure  
Sea Level Pressure 29.74 in    
Wind  
Wind Speed 9 mph (WSW)    
Max Wind Speed 21 mph    
Max Gust Speed 30 mph    
Visibility 10 miles    
Events Rain , Thunderstorm    
Averages and records for this station are not official NWS values.
T = Trace of Precipitation, MM = Missing Value Source: NWS Daily Summary

Daily Weather History Graph

Daily Weather History Graph

Search for Another Location

Airport or City:

Astronomy

Aug. 27, 2019 Rise Set
Actual Time 6:14 AM CDT 7:43 PM CDT
Civil Twilight 5:44 AM CDT 8:14 PM CDT
Nautical Twilight 5:07 AM CDT 8:50 PM CDT
Astronomical Twilight 4:27 AM CDT 9:30 PM CDT
Moon 2:30 AM CDT (8/27) 6:12 PM CDT (8/27)
Length of Visible Light 14h 30m
Length of Day
13h 29m
Waning Crescent, 11% of the Moon is Illuminated
Aug 27
Waning Crescent
Aug 30
New
Sep 5
First Quarter
Sep 13
Full
Sep 21
Last Quarter

Hourly Weather History & Observations

Time (CDT) Temp. Dew Point Humidity Pressure Visibility Wind Dir Wind Speed Gust Speed Precip Events Conditions
12:15 AM 61.7 °F 61.7 °F 100% 29.68 in 10.0 mi West 8.1 mph - N/A   Overcast
12:35 AM 61.7 °F 61.7 °F 100% 29.68 in 10.0 mi West 5.8 mph - N/A   Overcast
12:55 AM 60.8 °F 60.8 °F 100% 29.68 in 10.0 mi West 9.2 mph - N/A   Overcast
1:15 AM 59.9 °F 59.9 °F 100% 29.68 in 10.0 mi West 10.4 mph - N/A   Overcast
1:35 AM 59.0 °F 59.0 °F 100% 29.68 in 10.0 mi West 6.9 mph - N/A   Overcast
1:55 AM 59.0 °F 59.0 °F 100% 29.68 in 10.0 mi West 9.2 mph 18.4 mph N/A   Overcast
2:15 AM 58.5 °F 58.5 °F 100% 29.69 in 10.0 mi WSW 5.8 mph - N/A   Overcast
2:35 AM 58.1 °F 58.1 °F 100% 29.69 in 10.0 mi WSW 8.1 mph - N/A   Overcast
2:55 AM 57.4 °F 57.4 °F 100% 29.69 in 10.0 mi SW 5.8 mph - N/A   Scattered Clouds
3:15 AM 56.8 °F 56.8 °F 100% 29.69 in 10.0 mi SW 4.6 mph - N/A   Mostly Cloudy
3:35 AM 56.5 °F 56.5 °F 100% 29.69 in 10.0 mi SW 5.8 mph - N/A   Scattered Clouds
3:55 AM 56.8 °F 56.8 °F 100% 29.68 in 10.0 mi WNW 3.5 mph - N/A   Mostly Cloudy
4:15 AM 57.7 °F 57.7 °F 100% 29.69 in 10.0 mi WSW 8.1 mph - N/A   Overcast
4:35 AM 57.7 °F 57.7 °F 100% 29.69 in 10.0 mi West 10.4 mph 16.1 mph N/A   Overcast
4:55 AM 58.3 °F 58.3 °F 100% 29.69 in 10.0 mi West 9.2 mph - N/A   Overcast
5:15 AM 58.5 °F 58.5 °F 100% 29.69 in 10.0 mi West 6.9 mph - N/A   Overcast
5:35 AM 58.5 °F 58.5 °F 100% 29.71 in 10.0 mi West 10.4 mph - N/A   Overcast
5:55 AM 59.0 °F 58.3 °F 97% 29.70 in 10.0 mi West 6.9 mph 21.9 mph N/A   Overcast
6:15 AM 58.5 °F 58.1 °F 99% 29.71 in 10.0 mi WSW 10.4 mph - N/A   Overcast
6:35 AM 58.1 °F 57.2 °F 97% 29.71 in 10.0 mi West 10.4 mph - N/A   Mostly Cloudy
6:55 AM 58.1 °F 57.2 °F 97% 29.72 in 10.0 mi West 6.9 mph - N/A   Mostly Cloudy
7:15 AM 58.1 °F 57.0 °F 96% 29.73 in 10.0 mi West 6.9 mph - N/A   Overcast
7:35 AM 58.5 °F 56.8 °F 94% 29.74 in 10.0 mi West 10.4 mph 17.3 mph N/A   Overcast
7:55 AM 58.6 °F 57.0 °F 94% 29.74 in 10.0 mi West 9.2 mph - N/A   Overcast
8:15 AM 60.1 °F 56.8 °F 89% 29.73 in 10.0 mi West 10.4 mph 16.1 mph N/A   Overcast
8:35 AM 60.8 °F 56.7 °F 86% 29.73 in 10.0 mi West 9.2 mph - N/A   Mostly Cloudy
8:55 AM 61.3 °F 56.5 °F 84% 29.73 in 10.0 mi West 9.2 mph 17.3 mph N/A   Scattered Clouds
9:15 AM 63.0 °F 56.8 °F 80% 29.74 in 10.0 mi West 9.2 mph - N/A   Scattered Clouds
9:35 AM 63.5 °F 55.8 °F 76% 29.74 in 10.0 mi West 9.2 mph 17.3 mph N/A   Clear
9:55 AM 64.8 °F 55.9 °F 73% 29.74 in 10.0 mi WSW 10.4 mph - N/A   Clear
10:15 AM 65.7 °F 57.2 °F 74% 29.75 in 10.0 mi SW 12.7 mph - N/A   Clear
10:35 AM 66.4 °F 56.7 °F 71% 29.74 in 10.0 mi SW 10.4 mph - N/A   Clear
10:55 AM 67.5 °F 56.1 °F 67% 29.74 in 10.0 mi WSW 11.5 mph 17.3 mph N/A   Clear
11:15 AM 68.9 °F 55.6 °F 62% 29.74 in 10.0 mi SW 11.5 mph - N/A   Clear
11:35 AM 69.8 °F 55.4 °F 60% 29.74 in 10.0 mi WSW 15.0 mph - N/A   Clear
11:55 AM 71.1 °F 56.5 °F 60% 29.73 in 10.0 mi SW 12.7 mph 17.3 mph N/A   Scattered Clouds
12:15 PM 71.2 °F 55.8 °F 58% 29.73 in 10.0 mi WSW 18.4 mph 27.6 mph N/A   Mostly Cloudy
12:35 PM 71.8 °F 53.4 °F 52% 29.73 in 10.0 mi WSW 15.0 mph 25.3 mph N/A   Mostly Cloudy
12:55 PM 71.4 °F 53.6 °F 53% 29.72 in 10.0 mi West 16.1 mph 24.2 mph N/A   Scattered Clouds
1:15 PM 72.5 °F 53.1 °F 50% 29.72 in 10.0 mi West 16.1 mph 23.0 mph N/A   Scattered Clouds
1:35 PM 70.7 °F 53.6 °F 55% 29.72 in 10.0 mi WSW 16.1 mph 23.0 mph N/A   Mostly Cloudy
1:55 PM 72.1 °F 53.6 °F 52% 29.72 in 10.0 mi West 12.7 mph 25.3 mph N/A   Scattered Clouds
2:15 PM 70.9 °F 52.0 °F 51% 29.74 in 10.0 mi West 15.0 mph 24.2 mph N/A   Mostly Cloudy
2:35 PM 70.5 °F 49.5 °F 47% 29.74 in 10.0 mi West 17.3 mph 27.6 mph N/A   Mostly Cloudy
2:55 PM 70.7 °F 48.4 °F 45% 29.74 in 10.0 mi West 17.3 mph 27.6 mph N/A   Clear
3:15 PM 70.2 °F 48.6 °F 46% 29.74 in 10.0 mi West 12.7 mph 24.2 mph N/A   Mostly Cloudy
3:35 PM 71.6 °F 45.9 °F 40% 29.74 in 10.0 mi West 20.7 mph 29.9 mph N/A   Scattered Clouds
3:55 PM 70.3 °F 46.6 °F 43% 29.74 in 10.0 mi West 15.0 mph 27.6 mph N/A   Clear
4:35 PM 70.3 °F 46.2 °F 42% 29.74 in 10.0 mi WSW 15.0 mph 27.6 mph N/A   Scattered Clouds
4:55 PM 69.8 °F 45.9 °F 42% 29.74 in 10.0 mi WSW 13.8 mph 25.3 mph N/A   Clear
5:15 PM 69.6 °F 46.4 °F 43% 29.74 in 10.0 mi WSW 15.0 mph 24.2 mph N/A   Clear
5:35 PM 68.7 °F 47.1 °F 46% 29.75 in 10.0 mi WSW 12.7 mph 23.0 mph N/A   Clear
5:55 PM 66.7 °F 47.8 °F 51% 29.79 in 10.0 mi WNW 20.7 mph 28.8 mph N/A Rain , Thunderstorm Thunderstorms and Rain
6:15 PM 60.8 °F 48.4 °F 64% 29.78 in 10.0 mi West 6.9 mph 23.0 mph N/A Rain Light Rain
6:35 PM 62.6 °F 46.9 °F 57% 29.78 in 10.0 mi West 9.2 mph 18.4 mph N/A   Scattered Clouds
6:55 PM 62.6 °F 47.1 °F 57% 29.78 in 10.0 mi West 9.2 mph 17.3 mph N/A   Clear
7:15 PM 61.7 °F 47.7 °F 60% 29.78 in 10.0 mi West 4.6 mph - N/A   Clear
7:35 PM 60.8 °F 47.8 °F 62% 29.78 in 10.0 mi WSW 6.9 mph - N/A   Scattered Clouds
7:55 PM 60.1 °F 48.2 °F 65% 29.78 in 10.0 mi WSW 4.6 mph - N/A   Clear
8:15 PM 59.7 °F 48.7 °F 67% 29.79 in 10.0 mi WSW 6.9 mph - N/A   Clear
8:35 PM 58.3 °F 48.4 °F 70% 29.79 in 10.0 mi SW 5.8 mph - N/A   Clear
8:55 PM 57.4 °F 46.9 °F 68% 29.80 in 10.0 mi SW 6.9 mph - N/A   Clear
9:15 PM 58.3 °F 45.7 °F 63% 29.79 in 10.0 mi SW 6.9 mph - N/A   Clear
9:35 PM 59.0 °F 45.1 °F 60% 29.79 in 10.0 mi SW 8.1 mph - N/A   Clear
9:55 PM 59.4 °F 45.0 °F 59% 29.79 in 10.0 mi SW 10.4 mph - N/A   Scattered Clouds
10:15 PM 59.5 °F 45.5 °F 60% 29.78 in 10.0 mi SW 10.4 mph 19.6 mph N/A   Scattered Clouds
10:35 PM 59.0 °F 45.9 °F 62% 29.78 in 10.0 mi WSW 11.5 mph 17.3 mph N/A   Scattered Clouds
10:55 PM 58.5 °F 46.4 °F 64% 29.78 in 10.0 mi WSW 10.4 mph - N/A   Clear
11:15 PM 57.6 °F 46.4 °F 66% 29.78 in 10.0 mi WSW 9.2 mph - N/A   Clear
11:35 PM 57.2 °F 46.6 °F 68% 29.78 in 10.0 mi WSW 9.2 mph 16.1 mph N/A   Clear
11:55 PM 56.3 °F 46.9 °F 71% 29.78 in 10.0 mi WSW 9.2 mph - N/A   Clear